Orbital Elements at Epoch 2459000.5 (2020-May-31.0) TDB
Reference: JPL 15 (heliocentric ecliptic J2000)
Element | Value | Uncertainty (1-sigma) | Units |
e | .263210682308464 | 4.5303e-08 | |
a | 3.173601633472923 | 3.4129e-08 | au |
q | 2.338275782151259 | 1.3659e-07 | au |
i | 12.55064035575406 | 8.2539e-06 | deg |
node | 232.1871434201649 | 2.2526e-05 | deg |
peri | 246.2082637698769 | 2.7775e-05 | deg |
M | 85.89579321168107 | 1.6985e-05 | deg |
tp | 2458507.784258905123 (2019-Jan-24.28425891) | 9.3354e-05 | TDB |
period | 2065.033224118758 5.65 | 3.3311e-05 9.12e-08 | d yr |
n | .1743313355908005 | 2.8121e-09 | deg/d |
Q | 4.008927484794587 | 4.3112e-08 | au |
|
| | Orbit Determination Parameters
Additional Information
|